TimeMST,TemperatureF,Dew PointF,Humidity,Sea Level PressureIn,VisibilityMPH,Wind Direction,Wind SpeedMPH,Gust SpeedMPH,PrecipitationIn,Events,Conditions,WindDirDegrees,DateUTC
12:56 AM,10.9,3.9,73,30.42,10.0,ESE,5.8,-,N/A,,Clear,110,2013-01-05 07:56:00
1:56 AM,10.9,3.9,73,30.42,10.0,Calm,Calm,-,N/A,,Clear,0,2013-01-05 08:56:00
2:56 AM,9.0,1.9,73,30.43,10.0,SW,5.8,-,N/A,,Clear,220,2013-01-05 09:56:00
3:56 AM,9.0,1.9,73,30.43,10.0,Calm,Calm,-,N/A,,Clear,0,2013-01-05 10:56:00
4:56 AM,7.0,1.0,77,30.45,10.0,Calm,Calm,-,N/A,,Clear,0,2013-01-05 11:56:00
5:56 AM,8.1,3.0,80,30.49,10.0,SE,3.5,-,N/A,,Clear,130,2013-01-05 12:56:00
6:56 AM,7.0,1.0,77,30.54,10.0,East,3.5,-,N/A,,Clear,90,2013-01-05 13:56:00
7:56 AM,7.0,1.9,80,30.58,10.0,Calm,Calm,-,N/A,,Clear,0,2013-01-05 14:56:00
8:56 AM,12.9,5.0,71,30.58,10.0,Calm,Calm,-,N/A,,Clear,0,2013-01-05 15:56:00
9:56 AM,19.9,8.1,60,30.56,10.0,ESE,3.5,-,N/A,,Clear,110,2013-01-05 16:56:00
10:56 AM,26.1,9.0,49,30.53,10.0,Calm,Calm,-,N/A,,Clear,0,2013-01-05 17:56:00
11:56 AM,32.0,10.0,40,30.48,10.0,Calm,Calm,-,N/A,,Clear,0,2013-01-05 18:56:00
12:56 PM,36.0,9.0,33,30.44,10.0,East,4.6,-,N/A,,Clear,90,2013-01-05 19:56:00
1:56 PM,39.0,10.0,30,30.42,10.0,East,4.6,-,N/A,,Clear,80,2013-01-05 20:56:00
2:56 PM,42.1,9.0,26,30.40,10.0,Calm,Calm,-,N/A,,Clear,0,2013-01-05 21:56:00
3:56 PM,42.1,10.0,27,30.40,10.0,North,3.5,-,N/A,,Clear,360,2013-01-05 22:56:00
4:56 PM,39.0,10.9,32,30.43,10.0,NNW,5.8,-,N/A,,Clear,340,2013-01-05 23:56:00
5:56 PM,32.0,10.0,40,30.46,10.0,NW,5.8,-,N/A,,Clear,310,2013-01-06 00:56:00
6:56 PM,24.1,8.1,51,30.50,10.0,NNW,3.5,-,N/A,,Clear,330,2013-01-06 01:56:00
7:56 PM,19.0,6.1,57,30.52,10.0,WSW,4.6,-,N/A,,Clear,240,2013-01-06 02:56:00
8:56 PM,16.0,5.0,62,30.51,10.0,WSW,4.6,-,N/A,,Clear,240,2013-01-06 03:56:00
9:56 PM,18.0,7.0,62,30.48,10.0,WSW,6.9,-,N/A,,Clear,240,2013-01-06 04:56:00
10:56 PM,15.1,6.1,68,30.47,10.0,SW,3.5,-,N/A,,Clear,230,2013-01-06 05:56:00
11:56 PM,14.0,5.0,67,30.45,10.0,Calm,Calm,-,N/A,,Clear,0,2013-01-06 06:56:00